EW8485 Weather Reports


Display with metric or nautical units.
time (UTC)temp
F
wind
direction
speed
MPH
gust
MPH
rain 1hr
in
rain 24hr
in
rain mn
in
humidity
%
barometer
mb
20260507103422 68 358 0.0 3.0 0.00 0.00 0.00 85 1009.6
20260507102919 68 267 0.0 3.0 0.00 0.00 0.00 85 1009.5
20260507102652 68 6 0.0 3.0 0.00 0.00 0.00 85 1009.4
20260507101915 68 323 0.0 5.0 0.00 0.00 0.00 85 1009.5
20260507101416 68 319 0.0 5.0 0.00 0.00 0.00 85 1009.5
20260507100913 68 315 0.0 2.0 0.00 0.00 0.00 85 1009.3
20260507100411 68 317 0.0 3.0 0.00 0.00 0.00 85 1009.2
20260507095910 68 311 0.0 3.0 0.00 0.00 0.00 85 1009.0
20260507095642 68 325 0.0 3.0 0.00 0.00 0.00 85 1009.0
20260507094906 68 330 0.0 3.0 0.00 0.00 0.00 85 1009.0
20260507094406 68 284 0.0 2.0 0.00 0.00 0.00 85 1008.9
20260507093902 68 48 0.0 3.0 0.00 0.00 0.00 85 1008.8
20260507093404 68 356 0.0 4.0 0.00 0.00 0.00 85 1008.7
20260507092904 68 50 1.0 6.0 0.00 0.00 0.00 85 1008.6
20260507092633 68 350 1.0 6.0 0.00 0.00 0.00 85 1008.8
20260507091859 68 30 1.0 5.0 0.00 0.00 0.00 85 1008.7
20260507091400 68 331 1.0 9.0 0.00 0.00 0.00 85 1008.9
20260507090900 68 42 1.0 9.0 0.00 0.00 0.00 84 1008.7
20260507090359 68 27 1.0 7.0 0.00 0.00 0.00 84 1008.6
20260507085859 68 293 1.0 7.0 0.00 0.00 0.00 84 1008.6
20260507085400 68 1 1.0 7.0 0.00 0.00 0.00 84 1008.7
20260507084855 68 65 2.0 8.0 0.00 0.00 0.00 84 1008.7
20260507084356 68 353 1.0 8.0 0.00 0.00 0.00 84 1008.8
20260507083856 69 300 1.0 6.0 0.00 0.00 0.00 84 1008.7
20260507083354 69 342 1.0 6.0 0.00 0.00 0.00 83 1008.7
20260507082855 69 287 1.0 6.0 0.00 0.00 0.00 83 1008.7
20260507082356 69 312 1.0 6.0 0.00 0.00 0.00 84 1008.6
20260507081855 69 51 1.0 6.0 0.00 0.00 0.00 83 1008.4
20260507081349 69 64 1.0 8.0 0.00 0.00 0.00 83 1008.4
20260507080850 69 49 1.0 8.0 0.00 0.00 0.00 83 1008.5
20260507080619 69 331 1.0 8.0 0.00 0.00 0.00 83 1008.7
20260507075850 69 25 1.0 8.0 0.00 0.00 0.00 83 1008.6
20260507075345 69 330 1.0 7.0 0.00 0.00 0.00 83 1008.9
20260507074846 69 309 1.0 7.0 0.00 0.00 0.00 83 1008.9
20260507074353 69 254 1.0 7.0 0.00 0.00 0.00 83 1009.0
20260507074346 69 37 1.0 7.0 0.00 0.00 0.00 83 1009.0
20260507073345 69 328 1.0 6.0 0.00 0.00 0.00 83 1009.0
20260507072846 70 20 1.0 5.0 0.00 0.00 0.00 83 1009.0
20260507072611 70 72 1.0 5.0 0.00 0.00 0.00 83 1009.1
20260507071841 70 4 1.0 4.0 0.00 0.00 0.00 83 1009.1
20260507071613 70 295 1.0 4.0 0.00 0.00 0.00 83 1009.3
20260507070841 70 310 1.0 8.0 0.00 0.00 0.00 83 1009.3
20260507070611 70 345 1.0 8.0 0.00 0.00 0.00 82 1009.3
20260507065842 70 34 1.0 5.0 0.00 0.00 0.00 82 1009.2
20260507065336 70 306 1.0 6.0 0.00 0.00 0.00 83 1009.3
20260507065110 70 327 2.0 7.0 0.00 0.00 0.00 83 1009.1
20260507064337 70 345 2.0 7.0 0.00 0.00 0.00 83 1008.9
20260507063837 71 274 1.0 9.0 0.00 0.00 0.00 82 1008.8
20260507063337 71 303 1.0 9.0 0.00 0.00 0.00 82 1009.0
20260507062837 71 311 1.0 8.0 0.00 0.00 0.00 82 1009.0
20260507062333 71 326 1.0 6.0 0.00 0.00 0.00 82 1009.0
20260507061834 71 297 1.0 6.0 0.00 0.00 0.00 83 1008.9
20260507061334 71 316 1.0 8.0 0.00 0.00 0.00 82 1008.8
20260507060832 71 30 1.0 8.0 0.00 0.00 0.00 82 1008.8
20260507060333 71 347 1.0 7.0 0.00 0.00 0.00 83 1008.8
20260507055834 71 328 1.0 7.0 0.00 0.00 0.00 83 1008.7
20260507055329 71 295 1.0 7.0 0.00 0.00 0.00 82 1008.6
20260507054829 71 329 1.0 7.0 0.00 0.00 0.00 83 1008.6
20260507054329 71 263 1.0 8.0 0.00 0.00 0.00 83 1008.5
20260507053830 71 317 1.0 8.0 0.00 0.00 0.00 82 1008.6
20260507053329 71 49 1.0 6.0 0.00 0.00 0.00 82 1008.5
20260507052830 72 329 1.0 5.0 0.00 0.00 0.00 82 1008.5
20260507052329 72 45 1.0 7.0 0.00 0.00 0.00 82 1008.7
20260507051829 72 326 2.0 7.0 0.00 0.00 0.00 82 1008.6
20260507051323 72 66 2.0 7.0 0.00 0.00 0.00 82 1008.6
20260507050823 72 13 2.0 7.0 0.00 0.00 0.00 82 1008.6
20260507050324 72 319 1.0 7.0 0.00 0.00 0.00 82 1008.5
20260507045823 72 321 1.0 7.0 0.00 0.00 0.00 82 1008.5
20260507045324 73 103 0.0 5.0 0.00 0.00 0.00 82 1008.4
20260507044823 73 326 1.0 7.0 0.00 0.00 0.00 82 1008.7
20260507044317 73 306 1.0 7.0 0.00 0.00 0.00 82 1008.6
20260507043819 73 139 2.0 9.0 0.00 0.00 0.00 81 1008.4
20260507043316 73 13 2.0 9.0 0.00 0.00 0.00 81 1008.2
20260507042818 73 30 1.0 7.0 0.00 0.00 0.00 81 1008.4
20260507042549 73 336 1.0 6.0 0.00 0.00 0.00 81 1008.4
20260507041817 73 283 1.0 6.0 0.00 0.00 0.00 81 1008.5
20260507041545 73 261 2.0 6.0 0.00 0.00 0.00 81 1008.5
20260507040814 73 34 2.0 7.0 0.00 0.00 0.00 81 1008.6
20260507040314 74 343 2.0 9.0 0.00 0.00 0.00 81 1008.6
20260507035814 74 350 1.0 9.0 0.00 0.00 0.00 81 1008.6
20260507035314 74 344 1.0 7.0 0.00 0.00 0.00 81 1008.7
20260507034814 74 327 1.0 7.0 0.00 0.00 0.00 81 1008.5
20260507034315 74 15 2.0 7.0 0.00 0.00 0.00 81 1008.5
20260507033809 74 304 1.0 7.0 0.00 0.00 0.00 81 1008.3
20260507033310 74 334 1.0 6.0 0.00 0.00 0.00 81 1008.2
20260507032810 74 349 1.0 6.0 0.00 0.00 0.00 81 1008.1
20260507032315 75 48 1.0 8.0 0.00 0.00 0.00 81 1008.0
20260507031810 75 338 2.0 8.0 0.00 0.00 0.00 81 1007.8
20260507031310 75 358 2.0 8.0 0.00 0.00 0.00 81 1007.8
20260507030811 75 283 1.0 9.0 0.00 0.00 0.00 81 1007.6
20260507030305 75 309 2.0 9.0 0.00 0.00 0.00 82 1007.6
20260507030035 75 263 2.0 9.0 0.00 0.00 0.00 82 1007.5
20260507025534 76 273 2.0 9.0 0.00 0.00 0.00 81 1007.4
20260507024804 76 333 3.0 9.0 0.00 0.00 0.00 82 1007.3
20260507024304 76 316 2.0 9.0 0.00 0.00 0.00 81 1007.3
20260507023804 76 314 2.0 9.0 0.00 0.00 0.00 81 1007.1
20260507023537 76 290 2.0 9.0 0.00 0.00 0.00 82 1006.9
20260507022803 77 301 1.0 6.0 0.00 0.00 0.00 82 1006.8
20260507022307 77 305 1.0 5.0 0.00 0.00 0.00 82 1006.7
20260507021802 77 309 1.0 5.0 0.00 0.00 0.00 82 1006.6
20260507021300 77 346 1.0 6.0 0.00 0.00 0.00 83 1006.6
20260507020803 77 322 1.0 6.0 0.00 0.00 0.00 82 1006.5
20260507020531 77 17 1.0 7.0 0.00 0.00 0.00 82 1006.4
20260507015800 77 268 2.0 7.0 0.00 0.00 0.00 82 1006.4
20260507015526 78 334 2.0 6.0 0.00 0.00 0.00 82 1006.3
20260507015414 78 325 2.0 6.0 0.00 0.00 0.00 83 1006.4
20260507014253 78 293 2.0 7.0 0.00 0.00 0.00 83 1006.3
20260507013800 79 286 2.0 8.0 0.00 0.00 0.00 83 1006.1
20260507013755 79 333 2.0 7.0 0.00 0.00 0.00 82 1006.1
20260507012751 80 248 1.0 8.0 0.00 0.00 0.00 85 1006.0
20260507012252 81 242 0.0 1.0 0.00 0.00 0.00 89 1005.7
20260507011752 81 269 0.0 0.0 0.00 0.00 0.00 88 1005.7
20260507011252 81 269 0.0 0.0 0.00 0.00 0.00 88 1005.5
20260507010751 81 269 0.0 1.0 0.00 0.00 0.00 88 1005.5
20260507010253 81 269 0.0 1.0 0.00 0.00 0.00 87 1005.4
20260507005748 81 256 0.0 1.0 0.00 0.00 0.00 87 1005.2
20260507005243 82 257 0.0 1.0 0.00 0.00 0.00 87 1005.1
20260507004737 82 115 0.0 1.0 0.00 0.00 0.00 86 1004.9
20260507004233 82 283 0.0 1.0 0.00 0.00 0.00 86 1004.9
20260507003729 82 271 0.0 1.0 0.00 0.00 0.00 86 1004.9
20260507003459 82 149 0.0 1.0 0.00 0.00 0.00 86 1004.9
20260507002721 83 79 0.0 1.0 0.00 0.00 0.00 86 1004.8
20260507002219 83 198 0.0 1.0 0.00 0.00 0.00 86 1004.8
20260507001718 83 143 0.0 1.0 0.00 0.00 0.00 85 1004.9
20260507001218 83 188 0.0 1.0 0.00 0.00 0.00 85 1004.9
20260507000717 83 98 0.0 1.0 0.00 0.00 0.00 85 1004.8
20260507000215 83 99 0.0 5.0 0.00 0.00 0.00 85 1004.7
20260506235714 83 99 0.0 5.0 0.00 0.00 0.00 84 1004.8
20260506235212 83 196 0.0 3.0 0.00 0.00 0.00 84 1004.7
20260506234713 83 77 0.0 2.0 0.00 0.00 0.00 84 1004.8
20260506234212 84 122 0.0 1.0 0.00 0.00 0.00 84 1004.7
20260506233709 83 120 1.0 7.0 0.00 0.00 0.00 84 1004.6
20260506233211 83 137 1.0 7.0 0.00 0.00 0.00 83 1004.6
20260506232937 84 84 0.0 4.0 0.00 0.00 0.00 83 1004.5
20260506232206 84 109 0.0 3.0 0.00 0.00 0.00 83 1004.5
20260506231707 84 127 0.0 2.0 0.00 0.00 0.00 83 1004.4
20260506231205 84 112 0.0 2.0 0.00 0.00 0.00 83 1004.4
20260506230706 84 110 0.0 3.0 0.00 0.00 0.00 83 1004.3
20260506230206 84 226 0.0 4.0 0.00 0.00 0.00 83 1004.4
20260506225702 84 118 1.0 4.0 0.00 0.00 0.00 82 1004.5
20260506225202 84 113 1.0 6.0 0.00 0.00 0.00 82 1004.5
20260506224701 85 157 1.0 8.0 0.00 0.00 0.00 80 1004.4
20260506224435 86 90 1.0 11.0 0.00 0.00 0.00 79 1004.4
20260506223934 87 73 0.0 11.0 0.00 0.00 0.00 78 1004.3
20260506223203 87 177 0.0 3.0 0.00 0.00 0.00 77 1004.2
20260506222657 87 139 0.0 7.0 0.00 0.00 0.00 77 1004.2
20260506222158 87 245 1.0 11.0 0.00 0.00 0.00 79 1004.1
20260506221658 87 98 2.0 11.0 0.00 0.00 0.00 78 1004.0
20260506221158 88 126 1.0 8.0 0.00 0.00 0.00 76 1004.0
20260506220658 89 125 1.0 8.0 0.00 0.00 0.00 76 1004.0
20260506220159 89 248 0.0 3.0 0.00 0.00 0.00 75 1004.0
20260506215653 89 136 0.0 6.0 0.00 0.00 0.00 76 1004.0
20260506215201 89 94 0.0 5.0 0.00 0.00 0.00 74 1004.1
20260506215154 89 82 0.0 6.0 0.00 0.00 0.00 74 1004.0
20260506214154 90 212 0.0 5.0 0.00 0.00 0.00 73 1004.1
20260506213653 89 274 0.0 3.0 0.00 0.00 0.00 74 1004.1
20260506213155 89 201 1.0 4.0 0.00 0.00 0.00 75 1004.1
20260506212654 88 134 1.0 4.0 0.00 0.00 0.00 75 1004.3
20260506212155 89 231 1.0 6.0 0.00 0.00 0.00 73 1004.3
20260506211655 88 204 1.0 6.0 0.00 0.00 0.00 75 1004.4
20260506211152 88 200 1.0 6.0 0.00 0.00 0.00 75 1004.3
20260506210650 89 70 1.0 5.0 0.00 0.00 0.00 75 1004.4
20260506210150 88 117 1.0 5.0 0.00 0.00 0.00 77 1004.4
20260506205642 87 130 1.0 3.0 0.00 0.00 0.00 78 1004.4
20260506205142 87 261 0.0 2.0 0.00 0.00 0.00 78 1004.5
20260506204641 87 151 1.0 5.0 0.00 0.00 0.00 78 1004.6
20260506204141 87 250 1.0 5.0 0.00 0.00 0.00 77 1004.6
20260506203641 88 271 0.0 2.0 0.00 0.00 0.00 75 1004.6
20260506203137 88 181 0.0 8.0 0.00 0.00 0.00 75 1004.7
20260506202636 88 241 1.0 8.0 0.00 0.00 0.00 76 1004.7
20260506202136 87 101 1.0 6.0 0.00 0.00 0.00 78 1004.7
20260506201632 87 263 1.0 10.0 0.00 0.00 0.00 78 1004.7
20260506201133 86 119 1.0 10.0 0.00 0.00 0.00 79 1004.8
20260506200903 86 242 0.0 2.0 0.00 0.00 0.00 79 1004.8
20260506200130 86 203 0.0 3.0 0.00 0.00 0.00 80 1005.0
20260506195630 86 255 0.0 3.0 0.00 0.00 0.00 79 1005.0
20260506195124 86 169 1.0 4.0 0.00 0.00 0.00 80 1005.1
20260506194621 86 268 1.0 4.0 0.00 0.00 0.00 80 1005.1
20260506194122 86 190 0.0 3.0 0.00 0.00 0.00 80 1005.1
20260506193622 85 93 1.0 8.0 0.00 0.00 0.00 82 1005.1
20260506193123 85 112 1.0 8.0 0.00 0.00 0.00 81 1005.2
20260506192622 85 86 1.0 5.0 0.00 0.00 0.00 81 1005.3
20260506192119 86 148 1.0 7.0 0.00 0.00 0.00 80 1005.3
20260506191619 86 193 1.0 7.0 0.00 0.00 0.00 79 1005.3
20260506191349 86 76 0.0 4.0 0.00 0.00 0.00 78 1005.3
20260506190617 86 169 1.0 4.0 0.00 0.00 0.00 79 1005.4
20260506190118 86 132 1.0 6.0 0.00 0.00 0.00 78 1005.4
20260506185618 86 107 1.0 6.0 0.00 0.00 0.00 78 1005.5
20260506185348 87 101 0.0 4.0 0.00 0.00 0.00 78 1005.6
20260506184611 87 212 0.0 4.0 0.00 0.00 0.00 79 1005.7
20260506184112 87 53 1.0 5.0 0.00 0.00 0.00 78 1005.7
20260506183612 87 115 1.0 5.0 0.00 0.00 0.00 78 1005.7
20260506183112 87 240 1.0 5.0 0.00 0.00 0.00 80 1005.7
20260506182611 86 84 0.0 3.0 0.00 0.00 0.00 79 1005.8
20260506182112 86 241 0.0 3.0 0.00 0.00 0.00 80 1005.9
20260506181614 85 257 1.0 3.0 0.00 0.00 0.00 81 1006.0
20260506181113 85 126 0.0 5.0 0.00 0.00 0.00 82 1006.2
20260506181107 85 112 1.0 5.0 0.00 0.00 0.00 81 1006.2
20260506180105 85 136 0.0 2.0 0.00 0.00 0.00 81 1006.4
20260506175606 84 134 0.0 2.0 0.00 0.00 0.00 82 1006.4
20260506175106 84 66 1.0 5.0 0.00 0.00 0.00 83 1006.5
20260506174839 84 104 1.0 5.0 0.00 0.00 0.00 82 1006.5
20260506174106 85 91 0.0 2.0 0.00 0.00 0.00 82 1006.5
20260506173601 84 245 0.0 2.0 0.00 0.00 0.00 84 1006.6
20260506173102 83 261 1.0 5.0 0.00 0.00 0.00 85 1006.6
20260506172601 82 111 2.0 6.0 0.00 0.00 0.00 85 1006.6
20260506172101 82 76 2.0 6.0 0.00 0.00 0.00 85 1006.8
20260506171602 83 149 1.0 5.0 0.00 0.00 0.00 85 1006.8
20260506171102 82 106 2.0 6.0 0.00 0.00 0.00 86 1006.8
20260506170822 82 131 2.0 6.0 0.00 0.00 0.00 86 1006.9
20260506170817 82 170 1.0 6.0 0.00 0.00 0.00 87 1006.9
20260506170812 81 148 1.0 4.0 0.00 0.00 0.00 88 1006.9
20260506170746 82 172 2.0 6.0 0.00 0.00 0.00 86 1006.8
20260506170449 82 124 1.0 6.0 0.00 0.00 0.00 86 1006.9
20260506164557 81 148 1.0 4.0 0.00 0.00 0.00 88 1006.9
20260506164054 81 73 1.0 6.0 0.00 0.00 0.00 89 1006.8
20260506163554 81 100 1.0 6.0 0.00 0.00 0.00 89 1006.8
20260506163048 80 120 1.0 5.0 0.00 0.00 0.00 89 1006.7
20260506162546 81 99 0.0 3.0 0.00 0.00 0.00 89 1006.7
20260506162046 81 102 0.0 2.0 0.00 0.00 0.00 89 1006.7
20260506161542 81 102 0.0 2.0 0.00 0.00 0.00 89 1006.6
20260506161044 80 127 0.0 2.0 0.00 0.00 0.00 90 1006.6
20260506160535 80 142 0.0 3.0 0.00 0.00 0.00 91 1006.5
20260506160038 80 84 1.0 4.0 0.00 0.00 0.00 92 1006.5
20260506155536 79 94 1.0 4.0 0.00 0.00 0.00 91 1006.5
20260506155039 79 73 1.0 3.0 0.00 0.00 0.00 92 1006.5
20260506154536 79 89 1.0 3.0 0.00 0.00 0.00 92 1006.5
20260506154039 79 102 1.0 4.0 0.00 0.00 0.00 92 1006.5
20260506153530 78 120 1.0 4.0 0.00 0.00 0.00 92 1006.5
20260506153040 79 95 1.0 4.0 0.00 0.00 0.00 92 1006.2
20260506153032 79 93 1.0 4.0 0.00 0.00 0.00 92 1006.3
20260506152035 79 148 1.0 4.0 0.00 0.00 0.00 92 1006.1
20260506151530 79 119 1.0 3.0 0.00 0.00 0.00 92 1006.1
20260506151050 79 105 1.0 3.0 0.00 0.00 0.00 92 1006.2
20260506150528 79 84 1.0 4.0 0.00 0.00 0.00 91 1006.1
20260506150030 79 73 1.0 4.0 0.00 0.00 0.00 91 1006.0
20260506145523 79 76 1.0 4.0 0.00 0.00 0.00 91 1005.9
20260506145316 79 150 1.0 4.0 0.00 0.00 0.00 91 1005.7
20260506144524 79 98 1.0 6.0 0.00 0.00 0.00 91 1005.6
20260506144028 79 119 1.0 6.0 0.00 0.00 0.00 91 1005.5
20260506143537 79 84 1.0 5.0 0.00 0.00 0.00 91 1005.4
20260506143521 79 167 1.0 6.0 0.00 0.00 0.00 91 1005.4
20260506142519 79 133 1.0 5.0 0.00 0.00 0.00 91 1005.4
20260506142032 79 119 1.0 4.0 0.00 0.00 0.00 91 1005.5
20260506141750 78 88 1.0 4.0 0.00 0.00 0.00 92 1005.5
20260506141302 78 78 1.0 4.0 0.00 0.00 0.00 92 1005.5
20260506140511 78 117 1.0 6.0 0.00 0.00 0.00 92 1005.7
20260506140018 78 89 1.0 6.0 0.00 0.00 0.00 92 1005.7
20260506135511 78 141 1.0 3.0 0.00 0.00 0.00 93 1005.7
20260506135250 78 114 1.0 0.0 0.00 0.00 0.00 94 1005.7